TimeEST,TemperatureF,Dew PointF,Humidity,Sea Level PressureIn,VisibilityMPH,Wind Direction,Wind SpeedMPH,Gust SpeedMPH,PrecipitationIn,Events,Conditions,WindDirDegrees,DateUTC
12:53 AM,35.1,26.1,70,30.19,10.0,NW,6.9,-,N/A,,Overcast,320,2012-11-05 05:53:00
1:53 AM,33.1,26.1,75,30.19,10.0,Calm,Calm,-,N/A,,Scattered Clouds,0,2012-11-05 06:53:00
2:53 AM,30.0,24.1,79,30.20,10.0,NW,4.6,-,N/A,,Clear,320,2012-11-05 07:53:00
3:53 AM,27.0,24.1,89,30.20,10.0,NW,6.9,-,N/A,,Clear,320,2012-11-05 08:53:00
4:53 AM,27.0,23.0,85,30.21,10.0,NNW,3.5,-,N/A,,Clear,330,2012-11-05 09:53:00
5:53 AM,28.0,24.1,85,30.22,10.0,Calm,Calm,-,N/A,,Overcast,0,2012-11-05 10:53:00
6:53 AM,28.9,25.0,85,30.22,10.0,NW,4.6,-,N/A,,Overcast,310,2012-11-05 11:53:00
7:53 AM,30.0,27.0,88,30.23,7.0,NW,3.5,-,N/A,,Overcast,320,2012-11-05 12:53:00
8:53 AM,33.1,27.0,78,30.23,10.0,NW,3.5,-,N/A,,Overcast,320,2012-11-05 13:53:00
9:53 AM,37.0,28.0,70,30.24,10.0,Calm,Calm,-,N/A,,Overcast,0,2012-11-05 14:53:00
10:53 AM,39.9,27.0,60,30.24,10.0,Calm,Calm,-,N/A,,Overcast,0,2012-11-05 15:53:00
11:53 AM,41.0,26.1,55,30.23,10.0,Variable,4.6,-,N/A,,Overcast,0,2012-11-05 16:53:00
12:53 PM,41.0,26.1,55,30.21,10.0,Variable,4.6,-,N/A,,Overcast,0,2012-11-05 17:53:00
1:53 PM,41.0,26.1,55,30.20,10.0,Calm,Calm,-,N/A,,Mostly Cloudy,0,2012-11-05 18:53:00
2:53 PM,42.1,26.1,53,30.20,10.0,ENE,5.8,-,N/A,,Overcast,60,2012-11-05 19:53:00
3:53 PM,41.0,25.0,53,30.20,10.0,East,5.8,-,N/A,,Clear,100,2012-11-05 20:53:00
4:53 PM,39.0,25.0,57,30.19,10.0,East,4.6,-,N/A,,Clear,90,2012-11-05 21:53:00
5:53 PM,37.0,25.0,62,30.20,10.0,Calm,Calm,-,N/A,,Clear,0,2012-11-05 22:53:00
6:53 PM,36.0,25.0,64,30.21,10.0,ENE,3.5,-,N/A,,Clear,70,2012-11-05 23:53:00
7:53 PM,33.1,25.0,72,30.20,10.0,Calm,Calm,-,N/A,,Clear,0,2012-11-06 00:53:00
8:53 PM,30.9,24.1,76,30.21,10.0,Calm,Calm,-,N/A,,Clear,0,2012-11-06 01:53:00
9:53 PM,30.0,24.1,79,30.20,10.0,Calm,Calm,-,N/A,,Clear,0,2012-11-06 02:53:00
10:53 PM,30.0,23.0,75,30.19,10.0,Calm,Calm,-,N/A,,Clear,0,2012-11-06 03:53:00
11:53 PM,28.9,23.0,78,30.19,10.0,Calm,Calm,-,N/A,,Partly Cloudy,0,2012-11-06 04:53:00